Home   Weather   Cumberland County   Past weeks

Flag for Canada Past Weather in Cumberland County, Nova Scotia, Canada — Yesterday and Last 2 Weeks

Now
16 °F

Cold.


Feels Like: 5 °F
Forecast: 9 / 19 °F
Wind: 8 mph from Northwest

Location: Kentville

Current Time: Dec 10, 2016 at 8:59:19 am

Latest Report: Dec 10, 2016 at 8:00 am


Visibility: N/A

Pressure: 30.03 "Hg

Humidity: 79%

Dew Point: 10 °F

Location of Cumberland CountyLocation

Past Weather in Cumberland County — Graph

°F

Cumberland County Temperature Yesterday

Maximum temperature yesterday: 32 °F (at 12:00 am)
Minimum temperature yesterday: 26 °F (at 11:00 pm)
Average temperature yesterday: 29 °F

High & Low Weather Summary for the Past Weeks

 TemperatureHumidityPressure
High46 °F (Dec 1, 7:00 pm)100% (Nov 27, 9:00 pm)30.39 "Hg (Nov 27, 9:00 pm)
Low17 °F (Dec 10, 7:00 am)61% (Nov 28, 4:00 pm)29.25 "Hg (Dec 1, 10:00 pm)
Average33 °F83%29.90 "Hg
* Reported Nov 25 7:00 am — Dec 10 7:00 am, Cumberland County, Weather by CustomWeather, © 2016

Note: Actual official high and low records may vary slightly from our data, if they occured in-between our weather recording intervals... More about our weather records

Advertising

Cumberland County Weather History for the Previous 24 Hours

Scroll right to see more
 ConditionsComfort  
Time TempWeatherWind HumidityBarometerVisibility
7:00 am
Sat, Dec 10
17 °FCold.10 mph76%29.99 "HgN/A
6:00 am18 °FCold.15 mph68%29.96 "HgN/A
5:00 am20 °FCold.12 mph71%29.93 "HgN/A
4:00 am21 °FCold.14 mph75%29.92 "HgN/A
3:00 am23 °FCold.13 mph76%29.90 "HgN/A
2:00 am24 °FCold.12 mph74%29.87 "HgN/A
1:00 am25 °FCold.7 mph76%29.85 "HgN/A
12:00 am25 °FChilly.9 mph77%29.84 "HgN/A
11:00 pm
Fri, Dec 9
26 °FChilly.12 mph75%29.82 "HgN/A
10:00 pm27 °FChilly.12 mph75%29.80 "HgN/A
9:00 pm27 °FChilly.10 mph74%29.79 "HgN/A
8:00 pm27 °FChilly.10 mph72%29.78 "HgN/A
7:00 pm28 °FChilly.10 mph68%29.75 "HgN/A
5:00 pm28 °FChilly.9 mph71%29.70 "HgN/A
4:00 pm28 °FChilly.12 mph78%29.68 "HgN/A
3:00 pm30 °FChilly.9 mph71%29.65 "HgN/A
2:00 pm30 °FChilly.10 mph70%29.62 "HgN/A
1:00 pm30 °FChilly.8 mph73%29.62 "HgN/A
12:00 pm31 °FChilly.10 mph73%29.62 "HgN/A
11:00 am31 °FChilly.9 mph78%29.62 "HgN/A
10:00 am30 °FChilly.13 mph76%29.61 "HgN/A
9:00 am28 °FChilly.8 mph80%29.59 "HgN/A
8:00 am29 °FChilly.7 mph86%29.58 "HgN/A
Weather by CustomWeather, © 2016

See weather overviewHow to use our weather pages